Weather History for Ingleside, TX

Change the Weather History Date:

Friday, February 15, 2013

  Actual Average Record
Temperature  
Mean Temperature 60 °F -  
Max Temperature 71 °F - - ()
Min Temperature 50 °F - - ()
Degree Days  
Heating Degree Days 4    
Growing Degree Days 10 (Base 50)    
Moisture  
Dew Point 49 °F    
Average Humidity 68    
Maximum Humidity 95    
Minimum Humidity 37    
Precipitation  
Precipitation 0.00 in - - ()
Sea Level Pressure  
Sea Level Pressure 30.15 in    
Wind  
Wind Speed 7 mph (ENE)    
Max Wind Speed 20 mph    
Max Gust Speed 33 mph    
Visibility 10 miles    
Events      
T = Trace of Precipitation, MM = Missing Value Source: NWS Daily Summary

Daily Weather History Graph

Daily Weather History Graph

Search for Another Location

Airport:

Trip Planner

Search our weather history database for the weather conditions in past years. The results will help you decide how hot, cold, wet, or windy it might be!

Date:

Astronomy

Feb. 15, 2013 Rise Set
Actual Time 7:06 AM CST 6:20 PM CST
Civil Twilight 6:42 AM CST 6:44 PM CST
Nautical Twilight 6:14 AM CST 7:11 PM CST
Astronomical Twilight 5:47 AM CST 7:39 PM CST
Moon 10:16 AM CST (2/15) 11:46 PM CST (2/15)
Length of Visible Light 12h 02m
Length of Day
11h 14m
Waxing Crescent, 30% of the Moon is Illuminated
Feb 15
Waxing Crescent
Feb 17
First Quarter
Feb 25
Full
Mar 4
Last Quarter
Mar 11
New

Hourly Weather History & Observations

Time (CST) Temp. Dew Point Humidity Pressure Visibility Wind Dir Wind Speed Gust Speed Precip Events Conditions
12:15 AM 54.9 °F 48.0 °F 78% 30.06 in 10.0 mi ESE 8.1 mph - N/A   Clear
12:35 AM 55.2 °F 48.9 °F 79% 30.06 in 10.0 mi SE 5.8 mph - N/A   Clear
12:55 AM 55.4 °F 49.3 °F 80% 30.06 in 10.0 mi SE 5.8 mph - N/A   Clear
1:15 AM 55.4 °F 49.6 °F 81% 30.07 in 10.0 mi ESE 5.8 mph - N/A   Clear
1:35 AM 57.0 °F 50.5 °F 79% 30.07 in 10.0 mi East 4.6 mph - N/A   Clear
1:55 AM 56.3 °F 50.2 °F 80% 30.07 in 10.0 mi East 3.5 mph - N/A   Clear
2:15 AM 54.7 °F 49.8 °F 84% 30.07 in 10.0 mi East 3.5 mph - N/A   Clear
2:35 AM 55.9 °F 50.0 °F 80% 30.07 in 10.0 mi East 3.5 mph - N/A   Clear
2:55 AM 53.2 °F 48.7 °F 85% 30.07 in 10.0 mi Calm Calm - N/A   Clear
3:15 AM 52.2 °F 48.9 °F 89% 30.07 in 10.0 mi Calm Calm - N/A   Clear
3:35 AM 51.4 °F 48.6 °F 90% 30.08 in 10.0 mi Calm Calm - N/A   Clear
3:55 AM 50.4 °F 48.0 °F 92% 30.08 in 10.0 mi NNE 3.5 mph - N/A   Clear
4:15 AM 50.7 °F 48.4 °F 92% 30.09 in 10.0 mi NE 3.5 mph - N/A   Clear
4:35 AM 51.3 °F 49.1 °F 92% 30.09 in 10.0 mi NE 3.5 mph - N/A   Clear
4:55 AM 51.1 °F 49.1 °F 93% 30.09 in 10.0 mi NE 5.8 mph - N/A   Clear
5:15 AM 50.9 °F 49.1 °F 94% 30.09 in 10.0 mi ENE 5.8 mph - N/A   Clear
5:35 AM 51.1 °F 49.3 °F 94% 30.09 in 10.0 mi ENE 5.8 mph - N/A   Clear
5:55 AM 50.7 °F 48.9 °F 94% 30.09 in 10.0 mi ENE 4.6 mph - N/A   Clear
6:15 AM 50.5 °F 48.7 °F 94% 30.10 in 10.0 mi ENE 5.8 mph - N/A   Clear
6:35 AM 50.7 °F 49.3 °F 95% 30.10 in 10.0 mi ENE 4.6 mph - N/A   Clear
6:55 AM 51.3 °F 49.8 °F 95% 30.11 in 10.0 mi ENE 4.6 mph - N/A   Clear
7:15 AM 50.9 °F 49.5 °F 95% 30.11 in 10.0 mi ENE 4.6 mph - N/A   Clear
7:35 AM 51.8 °F 50.5 °F 95% 30.12 in 10.0 mi ENE 4.6 mph - N/A   Clear
7:55 AM 52.9 °F 51.6 °F 95% 30.13 in 10.0 mi NE 4.6 mph - N/A   Clear
8:15 AM 55.6 °F 54.1 °F 95% 30.14 in 10.0 mi NE 4.6 mph - N/A   Clear
8:35 AM 59.5 °F 56.7 °F 90% 30.15 in 10.0 mi ENE 4.6 mph - N/A   Clear
8:55 AM 63.1 °F 57.7 °F 83% 30.15 in 10.0 mi ENE 5.8 mph - N/A   Clear
9:15 AM 65.8 °F 56.5 °F 72% 30.16 in 10.0 mi East 3.5 mph - N/A   Clear
9:35 AM 67.8 °F 53.6 °F 60% 30.17 in 10.0 mi East 4.6 mph - N/A   Clear
9:55 AM 68.7 °F 51.8 °F 55% 30.17 in 10.0 mi East 6.9 mph - N/A   Clear
10:15 AM 69.1 °F 52.0 °F 54% 30.18 in 10.0 mi East 6.9 mph - N/A   Clear
10:35 AM 69.8 °F 51.4 °F 52% 30.18 in 10.0 mi East 8.1 mph - N/A   Clear
10:55 AM 70.0 °F 51.1 °F 51% 30.18 in 10.0 mi East 8.1 mph - N/A   Clear
11:15 AM 70.5 °F 50.7 °F 49% 30.18 in 10.0 mi East 9.2 mph - N/A   Clear
11:55 AM 71.2 °F 51.3 °F 49% 30.18 in 10.0 mi East 9.2 mph - N/A   Scattered Clouds
12:15 PM 70.5 °F 51.4 °F 51% 30.18 in 10.0 mi East 12.7 mph - N/A   Overcast
12:35 PM 70.3 °F 51.8 °F 52% 30.17 in 10.0 mi ENE 11.5 mph 17.3 mph N/A   Overcast
12:55 PM 69.8 °F 51.4 °F 52% 30.16 in 10.0 mi ENE 8.1 mph - N/A   Overcast
1:15 PM 68.7 °F 51.4 °F 54% 30.15 in 10.0 mi East 16.1 mph 19.6 mph N/A   Overcast
1:35 PM 70.2 °F 51.3 °F 51% 30.14 in 10.0 mi East 13.8 mph - N/A   Scattered Clouds
1:55 PM 71.2 °F 51.3 °F 49% 30.14 in 10.0 mi East 13.8 mph - N/A   Scattered Clouds
2:15 PM 71.1 °F 51.3 °F 49% 30.13 in 10.0 mi East 15.0 mph 19.6 mph N/A   Clear
2:35 PM 71.1 °F 51.1 °F 49% 30.12 in 10.0 mi East 15.0 mph - N/A   Clear
2:55 PM 70.9 °F 50.7 °F 49% 30.12 in 10.0 mi East 17.3 mph - N/A   Clear
3:15 PM 70.7 °F 50.2 °F 48% 30.12 in 10.0 mi East 11.5 mph 15.0 mph N/A   Clear
3:35 PM 70.2 °F 50.0 °F 49% 30.12 in 10.0 mi East 13.8 mph - N/A   Clear
3:55 PM 69.6 °F 49.8 °F 49% 30.12 in 10.0 mi East 16.1 mph - N/A   Clear
4:15 PM 69.1 °F 47.8 °F 47% 30.12 in 10.0 mi East 16.1 mph 21.9 mph N/A   Clear
4:35 PM 68.5 °F 42.6 °F 39% 30.12 in 10.0 mi East 13.8 mph 19.6 mph N/A   Clear
4:55 PM 68.2 °F 40.6 °F 37% 30.13 in 10.0 mi East 13.8 mph - N/A   Clear
5:15 PM 67.3 °F 41.2 °F 39% 30.13 in 10.0 mi East 9.2 mph 12.7 mph N/A   Clear
5:35 PM 66.6 °F 42.3 °F 41% 30.14 in 10.0 mi East 11.5 mph - N/A   Clear
5:55 PM 65.1 °F 43.3 °F 45% 30.15 in 10.0 mi East 9.2 mph - N/A   Clear
6:15 PM 63.1 °F 45.0 °F 51% 30.15 in 10.0 mi East 6.9 mph - N/A   Clear
6:35 PM 61.3 °F 46.0 °F 57% 30.16 in 10.0 mi East 5.8 mph - N/A   Clear
6:55 PM 60.6 °F 46.8 °F 60% 30.16 in 10.0 mi North - - N/A   Clear
7:15 PM 59.9 °F 48.0 °F 65% 30.17 in 10.0 mi East 5.8 mph - N/A   Clear
7:35 PM 59.4 °F 48.4 °F 67% 30.18 in 10.0 mi East 5.8 mph - N/A   Clear
7:55 PM 58.5 °F 48.4 °F 69% 30.19 in 10.0 mi East 4.6 mph - N/A   Clear
8:15 PM 59.2 °F 48.7 °F 68% 30.19 in 10.0 mi East 5.8 mph - N/A   Clear
8:35 PM 58.3 °F 48.2 °F 69% 30.20 in 10.0 mi East 3.5 mph - N/A   Clear
8:55 PM 58.8 °F 48.2 °F 68% 30.22 in 10.0 mi East 3.5 mph - N/A   Scattered Clouds
9:15 PM 59.5 °F 48.6 °F 67% 30.22 in 10.0 mi ENE 3.5 mph - N/A   Overcast
9:35 PM 59.5 °F 48.7 °F 67% 30.23 in 10.0 mi Calm Calm - N/A   Mostly Cloudy
9:55 PM 58.1 °F 49.8 °F 74% 30.26 in 10.0 mi North 8.1 mph - N/A   Mostly Cloudy
10:15 PM 58.5 °F 49.8 °F 73% 30.27 in 10.0 mi NNE 17.3 mph - N/A   Mostly Cloudy
10:35 PM 59.4 °F 44.8 °F 58% 30.29 in 10.0 mi NNE 18.4 mph 26.5 mph N/A   Mostly Cloudy
10:55 PM 59.0 °F 43.3 °F 56% 30.29 in 10.0 mi NNE 19.6 mph 33.4 mph N/A   Mostly Cloudy
11:15 PM 58.1 °F 43.7 °F 59% 30.30 in 10.0 mi NNE 17.3 mph 27.6 mph N/A   Scattered Clouds
11:35 PM 57.4 °F 43.5 °F 60% 30.31 in 10.0 mi NNE 17.3 mph 24.2 mph N/A   Mostly Cloudy
11:55 PM 57.4 °F 43.5 °F 60% 30.31 in 10.0 mi NNE 19.6 mph - N/A   Overcast